Вернуться в каталог

FENGYUN 1C DEB

АктивенSSO
NORAD 31025·DEBRIS·🇨🇳 China

Запущен May 10, 1999 с Taiyuan Satellite Launch Center

Loading…

Ближайшие Пролёты (ближайшие 24 часа)

TLE

СвежийSource: Space-Track

Эпоха: Sep 13, 2026, 16:41 UTC

1 31025U 99025BDT 26256.69534816  .00000769  00000-0  32331-3 0  9996
2 31025  98.6014 244.4847 0170233 296.2251  62.1514 14.21212211682706

Отслеживайте FENGYUN 1C DEB в реальном времени с AllMySat

Download on the App Store